GW2463 Weather Reports


time (UTC)temp
F
wind
direction
speed
knots
gust
knots
rain 1hr
in
rain 24hr
in
rain mn
in
humidity
%
barometer
mb
20260506114016 60 193 0.0 1.7 0.00 0.00 0.00 79 1009.5
20260506113515 60 86 0.0 0.9 0.00 0.00 0.00 78 1009.3
20260506113016 60 199 0.0 0.9 0.00 0.00 0.00 77 1009.3
20260506112516 60 85 0.0 0.9 0.00 0.00 0.00 76 1009.4
20260506112016 60 208 0.0 0.9 0.00 0.00 0.00 76 1009.2
20260506111535 60 166 0.0 1.7 0.00 0.00 0.00 76 1009.4
20260506111054 60 236 0.0 1.7 0.00 0.00 0.00 75 1009.2
20260506110553 60 134 0.0 0.9 0.00 0.00 0.00 75 1009.1
20260506110029 60 242 0.0 0.9 0.00 0.00 0.00 75 1009.2
20260506105530 60 249 0.0 0.9 0.00 0.00 0.00 75 1008.9
20260506105050 60 102 0.0 1.7 0.00 0.00 0.00 75 1008.8
20260506104529 60 70 0.0 1.7 0.00 0.00 0.00 74 1008.8
20260506104029 60 143 0.0 1.7 0.00 0.00 0.00 74 1008.8
20260506103529 60 260 0.0 0.0 0.00 0.00 0.00 73 1008.8
20260506103027 60 102 0.0 0.0 0.00 0.00 0.00 73 1008.9
20260506102523 60 103 0.0 0.9 0.00 0.00 0.00 72 1008.7
20260506102020 60 170 0.0 0.9 0.00 0.00 0.00 72 1008.8
20260506101517 60 217 0.0 0.9 0.00 0.00 0.00 72 1008.8
20260506101034 60 120 0.0 0.0 0.00 0.00 0.00 72 1008.8
20260506100529 60 127 0.0 0.0 0.00 0.00 0.00 71 1008.9
20260506100041 60 127 0.0 0.9 0.00 0.00 0.00 71 1009.0
20260506095517 60 128 0.0 0.9 0.00 0.00 0.00 70 1009.0
20260506095014 60 217 0.0 0.0 0.00 0.00 0.00 70 1009.0
20260506094527 60 218 0.0 0.0 0.00 0.00 0.00 69 1008.9
20260506094024 60 218 0.0 0.9 0.00 0.00 0.00 69 1009.0
20260506093521 60 219 0.0 0.9 0.00 0.00 0.00 69 1008.9
20260506093040 60 217 0.0 0.9 0.00 0.00 0.00 68 1008.9
20260506092537 60 194 0.0 0.9 0.00 0.00 0.00 68 1009.0
20260506092015 60 200 0.0 0.0 0.00 0.00 0.00 67 1009.0
20260506091514 61 204 0.0 0.9 0.00 0.00 0.00 67 1009.1
20260506091033 61 82 0.0 0.9 0.00 0.00 0.00 67 1009.0
20260506090552 61 142 0.0 0.9 0.00 0.00 0.00 66 1009.0
20260506090026 61 77 0.0 0.0 0.00 0.00 0.00 66 1009.0
20260506085525 61 162 0.0 0.0 0.00 0.00 0.00 65 1009.4
20260506085025 61 243 0.0 0.0 0.00 0.00 0.00 65 1009.4
20260506084525 61 242 0.0 0.9 0.00 0.00 0.00 65 1009.3
20260506084025 61 280 0.0 0.9 0.00 0.00 0.00 65 1009.3
20260506083525 61 233 0.0 0.9 0.00 0.00 0.00 64 1009.2
20260506083023 61 158 0.0 0.9 0.00 0.00 0.00 64 1009.1
20260506082522 61 212 0.0 0.9 0.00 0.00 0.00 64 1009.2
20260506082021 61 242 0.0 0.9 0.00 0.00 0.00 64 1009.1
20260506081520 62 246 0.0 0.9 0.00 0.00 0.00 64 1009.1
20260506081020 62 236 0.0 0.0 0.00 0.00 0.00 64 1009.1
20260506080519 62 30 0.0 0.9 0.00 0.00 0.00 63 1009.2
20260506073049 62 250 0.0 0.9 0.00 0.00 0.00 61 1009.4
20260506072527 62 250 0.0 0.9 0.00 0.00 0.00 61 1009.4
20260506072046 62 84 0.0 1.7 0.00 0.00 0.00 61 1009.5
20260506071524 62 186 0.0 1.7 0.00 0.00 0.00 61 1009.4
20260506071023 62 300 0.0 1.7 0.00 0.00 0.00 61 1009.5
20260506070542 62 222 0.0 1.7 0.00 0.00 0.00 61 1009.5
20260506062027 62 72 0.0 0.9 0.00 0.00 0.00 60 1010.0
20260506061526 62 130 0.0 1.7 0.00 0.00 0.00 60 1010.1
20260506061044 63 68 0.0 1.7 0.00 0.00 0.00 60 1010.1
20260506060522 63 70 0.0 0.9 0.00 0.00 0.00 59 1010.1
20260506051037 64 131 0.0 0.9 0.00 0.00 0.00 56 1010.3
20260506050533 64 242 0.0 1.7 0.00 0.00 0.00 55 1010.3
20260506045022 65 33 0.0 0.9 0.00 0.00 0.00 55 1010.4
20260506044542 65 29 0.0 0.9 0.00 0.00 0.00 54 1010.4
20260506044021 65 246 0.0 0.9 0.00 0.00 0.00 54 1010.4
20260506043521 65 208 0.0 0.9 0.00 0.00 0.00 54 1010.4
20260506043021 65 240 0.0 0.9 0.00 0.00 0.00 54 1010.3
20260506042520 65 92 0.0 2.6 0.00 0.00 0.00 53 1010.4
20260506042020 65 203 0.0 2.6 0.00 0.00 0.00 53 1010.3
20260506041048 65 181 0.0 2.6 0.00 0.00 0.00 52 1010.4
20260506040526 65 225 0.0 0.9 0.00 0.00 0.00 53 1010.5
20260506040021 65 195 0.0 1.7 0.00 0.00 0.00 53 1010.5
20260506035513 65 155 0.0 1.7 0.00 0.00 0.00 52 1010.4
20260506035031 65 205 0.0 1.7 0.00 0.00 0.00 52 1010.4
20260506034525 66 96 0.0 1.7 0.00 0.00 0.00 51 1010.5
20260506034024 66 177 0.0 0.9 0.00 0.00 0.00 51 1010.4
20260506033525 66 208 0.0 0.0 0.00 0.00 0.00 51 1010.5
20260506033026 66 101 0.0 1.7 0.00 0.00 0.00 50 1010.4
20260506032526 66 187 0.0 1.7 0.00 0.00 0.00 50 1010.3
20260506032026 67 204 0.0 1.7 0.00 0.00 0.00 50 1010.4
20260506031526 67 149 0.0 1.7 0.00 0.00 0.00 49 1010.4
20260506031026 67 243 0.0 5.2 0.00 0.00 0.00 49 1010.4
20260506030545 67 245 0.0 5.2 0.00 0.00 0.00 49 1010.4
20260506030041 67 285 0.0 0.9 0.00 0.00 0.00 49 1010.4
20260506025518 67 257 0.0 2.6 0.00 0.00 0.00 49 1010.4
20260506025016 67 61 0.0 2.6 0.00 0.00 0.00 49 1010.3
20260506024515 67 238 0.0 1.7 0.00 0.00 0.00 48 1010.4
20260506024033 67 194 0.0 1.7 0.00 0.00 0.00 48 1010.4
20260506023550 68 214 0.0 2.6 0.00 0.00 0.00 48 1010.6
20260506023048 68 250 0.0 0.9 0.00 0.00 0.00 48 1010.5
20260506022528 68 243 0.0 0.9 0.00 0.00 0.00 48 1010.6
20260506022022 68 275 0.0 0.9 0.00 0.00 0.00 47 1010.6
20260506021519 68 242 0.0 2.6 0.00 0.00 0.00 47 1010.6
20260506021016 68 186 0.0 2.6 0.00 0.00 0.00 47 1010.5
20260506020513 69 170 0.0 1.7 0.00 0.00 0.00 46 1010.6
20260506020028 69 257 0.0 2.6 0.00 0.00 0.00 46 1010.5
20260506015528 69 198 0.9 2.6 0.00 0.00 0.00 46 1010.6
20260506015028 69 225 0.0 1.7 0.00 0.00 0.00 46 1010.5
20260506014529 69 234 0.0 1.7 0.00 0.00 0.00 46 1010.4
20260506014030 69 208 0.0 0.9 0.00 0.00 0.00 45 1010.4
20260506013512 69 226 0.0 0.9 0.00 0.00 0.00 46 1010.3
20260506013013 69 233 0.0 2.6 0.00 0.00 0.00 45 1010.3
20260506012513 69 212 0.0 2.6 0.00 0.00 0.00 45 1010.2
20260506012013 70 84 0.0 2.6 0.00 0.00 0.00 44 1010.2
20260506011513 70 170 0.0 1.7 0.00 0.00 0.00 43 1010.0
20260506011014 70 184 0.0 1.7 0.00 0.00 0.00 43 1010.0
20260506010514 70 239 0.0 2.6 0.00 0.00 0.00 43 1009.9
20260506010044 70 233 0.9 2.6 0.00 0.00 0.00 43 1009.8
20260506005520 70 68 0.0 6.1 0.00 0.00 0.00 43 1009.8
20260506005017 70 40 0.9 6.1 0.00 0.00 0.00 43 1009.8
20260506004516 70 214 0.0 2.6 0.00 0.00 0.00 43 1009.7
20260506004013 70 220 0.0 0.9 0.00 0.00 0.00 43 1009.8
20260506003530 71 87 0.0 0.9 0.00 0.00 0.00 43 1009.7
20260506003028 71 248 0.0 0.9 0.00 0.00 0.00 43 1009.6
20260506002528 71 215 0.0 0.0 0.00 0.00 0.00 43 1009.5
20260506002028 71 218 0.0 0.0 0.00 0.00 0.00 43 1009.5
20260506001547 71 215 0.0 0.0 0.00 0.00 0.00 43 1009.5
20260506001024 71 214 0.0 0.0 0.00 0.00 0.00 44 1009.4
20260506000523 71 256 0.0 0.0 0.00 0.00 0.00 43 1009.4
20260506000020 71 281 0.0 0.0 0.00 0.00 0.00 43 1009.4
20260505235540 71 194 0.0 0.0 0.00 0.00 0.00 43 1009.5
20260505235018 71 83 0.0 0.0 0.00 0.00 0.00 42 1009.4
20260505234519 71 270 0.0 0.0 0.00 0.00 0.00 42 1009.4
20260505234038 71 215 0.0 0.0 0.00 0.00 0.00 42 1009.4
20260505233516 71 214 0.0 0.0 0.00 0.00 0.00 41 1009.5
20260505233015 71 236 0.0 0.0 0.00 0.00 0.00 41 1009.4
20260505232513 72 217 0.0 0.0 0.00 0.00 0.00 41 1009.4
20260505232032 72 129 0.0 0.0 0.00 0.00 0.00 41 1009.4
20260505231551 72 253 0.0 1.7 0.00 0.00 0.00 40 1009.4
20260505231029 72 262 0.0 1.7 0.00 0.00 0.00 40 1009.3
20260505230548 72 197 0.9 2.6 0.00 0.00 0.00 40 1009.4
20260505230020 72 207 0.9 2.6 0.00 0.00 0.00 40 1009.3
20260505225518 73 231 0.0 6.1 0.00 0.00 0.00 39 1009.2
20260505225036 73 212 0.0 6.1 0.00 0.00 0.00 39 1009.1
20260505224514 73 238 0.0 3.5 0.00 0.00 0.00 39 1009.0
20260505224031 73 221 0.9 4.3 0.00 0.00 0.00 40 1009.1
20260505223528 73 221 0.9 4.3 0.00 0.00 0.00 39 1009.0
20260505223025 73 221 0.0 3.5 0.00 0.00 0.00 39 1009.1
20260505222523 73 269 0.0 2.6 0.00 0.00 0.00 40 1009.0
20260505222041 73 229 0.0 2.6 0.00 0.00 0.00 40 1008.9
20260505221517 73 263 0.9 3.5 0.00 0.00 0.00 39 1009.0
20260505221035 73 238 0.9 3.5 0.00 0.00 0.00 39 1009.0
20260505220531 73 203 0.9 3.5 0.00 0.00 0.00 39 1009.0
20260505220026 73 176 0.0 4.3 0.00 0.00 0.00 39 1009.0
20260505215526 74 264 0.9 5.2 0.00 0.00 0.00 39 1008.9
20260505215025 74 243 0.0 5.2 0.00 0.00 0.00 38 1008.8
20260505214525 74 267 0.0 3.5 0.00 0.00 0.00 38 1008.8
20260505214024 74 266 0.9 5.2 0.00 0.00 0.00 37 1008.7
20260505213522 74 278 1.7 5.2 0.00 0.00 0.00 35 1008.7
20260505213021 74 248 0.9 6.1 0.00 0.00 0.00 34 1008.7
20260505212518 74 277 0.9 7.8 0.00 0.00 0.00 33 1008.6
20260505212015 74 208 3.5 7.8 0.00 0.00 0.00 33 1008.6
20260505211527 74 55 2.6 6.1 0.00 0.00 0.00 32 1008.5
20260505211023 74 246 1.7 5.2 0.00 0.00 0.00 33 1008.4
20260505210540 75 207 0.0 5.2 0.00 0.00 0.00 33 1008.4
20260505210013 75 212 0.9 4.3 0.00 0.00 0.00 33 1008.4
20260505205530 75 192 0.9 6.1 0.00 0.00 0.00 32 1008.3
20260505205027 75 345 0.9 6.1 0.00 0.00 0.00 32 1008.3
20260505204524 75 82 0.9 4.3 0.00 0.00 0.00 31 1008.4
20260505204021 76 290 0.0 4.3 0.00 0.00 0.00 31 1008.3
20260505203519 76 219 0.9 7.0 0.00 0.00 0.00 32 1008.3
20260505203018 77 284 0.0 7.0 0.00 0.00 0.00 31 1008.3
20260505202516 78 51 0.9 7.0 0.00 0.00 0.00 30 1008.4
20260505202015 78 219 1.7 4.3 0.00 0.00 0.00 31 1008.3
20260505201533 77 219 1.7 5.2 0.00 0.00 0.00 31 1008.3
20260505201029 77 288 1.7 5.2 0.00 0.00 0.00 31 1008.2
20260505200529 77 236 0.9 4.3 0.00 0.00 0.00 32 1008.2
20260505200023 77 81 0.9 7.0 0.00 0.00 0.00 32 1008.0
20260505195521 77 253 2.6 7.0 0.00 0.00 0.00 31 1008.3
20260505195040 77 314 3.5 7.0 0.00 0.00 0.00 31 1008.3
20260505194539 77 259 1.7 7.8 0.00 0.00 0.00 31 1008.3
20260505194016 77 269 2.6 7.8 0.00 0.00 0.00 31 1008.5
20260505193515 77 267 1.7 4.3 0.00 0.00 0.00 32 1008.3
20260505193014 76 229 0.9 4.3 0.00 0.00 0.00 32 1008.6
20260505192513 76 214 2.6 9.6 0.00 0.00 0.00 32 1008.8
20260505192031 76 239 3.5 9.6 0.00 0.00 0.00 32 1008.9
20260505191551 76 242 1.7 6.1 0.00 0.00 0.00 32 1008.8
20260505191027 76 197 0.9 6.1 0.00 0.00 0.00 33 1008.8
20260505190524 76 248 0.9 7.0 0.00 0.00 0.00 34 1008.8
20260505190040 76 191 2.6 7.0 0.00 0.00 0.00 33 1009.0
20260505185538 76 207 2.6 11.3 0.00 0.00 0.00 33 1009.2
20260505184518 76 240 0.9 5.2 0.00 0.00 0.00 35 1009.4
20260505184018 76 263 2.6 6.1 0.00 0.00 0.00 36 1009.4
20260505183518 75 236 1.7 6.1 0.00 0.00 0.00 36 1009.4
20260505183019 75 250 1.7 7.0 0.00 0.00 0.00 35 1009.4
20260505182540 76 215 1.7 6.1 0.00 0.00 0.00 35 1009.4
20260505182020 77 242 0.9 6.1 0.00 0.00 0.00 33 1009.4
20260505181535 77 239 0.9 7.0 0.00 0.00 0.00 32 1009.4
20260505181014 77 236 2.6 7.0 0.00 0.00 0.00 31 1009.6
20260505180515 76 308 1.7 8.7 0.00 0.00 0.00 32 1009.6
20260505180049 76 253 1.7 8.7 0.00 0.00 0.00 33 1009.6
20260505175527 76 277 3.5 8.7 0.00 0.00 0.00 33 1009.9
20260505175026 76 50 1.7 8.7 0.00 0.00 0.00 33 1009.7
20260505174525 76 113 3.5 10.4 0.00 0.00 0.00 33 1009.7
20260505174044 76 226 1.7 10.4 0.00 0.00 0.00 33 1009.6
20260505173521 76 63 1.7 9.6 0.00 0.00 0.00 35 1009.6
20260505173039 75 212 0.9 9.6 0.00 0.00 0.00 36 1009.7
20260505172537 75 266 3.5 8.7 0.00 0.00 0.00 34 1009.6
20260505172035 75 249 2.6 8.7 0.00 0.00 0.00 34 1009.7
20260505171534 75 245 3.5 8.7 0.00 0.00 0.00 34 1009.8
20260505171050 76 338 3.5 7.8 0.00 0.00 0.00 33 1009.8
20260505170526 75 234 1.7 8.7 0.00 0.00 0.00 35 1009.7
20260505170023 75 246 4.3 8.7 0.00 0.00 0.00 35 1010.0
20260505165523 75 266 1.7 8.7 0.00 0.00 0.00 37 1010.0
20260505165024 75 250 2.6 8.7 0.00 0.00 0.00 37 1010.0
20260505164544 75 219 2.6 10.4 0.00 0.00 0.00 37 1010.0
20260505164022 75 78 1.7 10.4 0.00 0.00 0.00 38 1010.2
20260505163521 75 231 3.5 7.8 0.00 0.00 0.00 38 1010.0
20260505163019 75 255 3.5 7.8 0.00 0.00 0.00 39 1010.2
20260505162517 75 193 0.9 7.8 0.00 0.00 0.00 40 1010.2
20260505162014 74 208 1.7 7.8 0.00 0.00 0.00 40 1010.4
20260505161531 74 221 0.9 6.1 0.00 0.00 0.00 41 1010.4
20260505161028 74 233 0.9 8.7 0.00 0.00 0.00 42 1010.4
20260505160525 73 249 4.3 8.7 0.00 0.00 0.00 42 1010.6
20260505153022 73 288 0.9 7.0 0.00 0.00 0.00 43 1010.8
20260505152521 73 280 1.7 7.0 0.00 0.00 0.00 43 1010.9
20260505152040 73 240 0.9 7.0 0.00 0.00 0.00 45 1010.8
20260505151538 72 233 1.7 7.0 0.00 0.00 0.00 45 1010.8
20260505151016 72 266 2.6 7.0 0.00 0.00 0.00 44 1010.9
20260505150514 72 219 0.0 3.5 0.00 0.00 0.00 46 1010.9
20260505140522 69 259 0.9 3.5 0.00 0.00 0.00 47 1011.2
20260505125026 65 174 0.9 4.3 0.00 0.00 0.00 56 1011.3
20260505124523 64 287 1.7 3.5 0.00 0.00 0.00 56 1011.2
20260505124021 64 252 0.0 2.6 0.00 0.00 0.00 57 1011.0
20260505123519 64 240 0.0 3.5 0.00 0.00 0.00 56 1011.0
20260505123018 64 269 0.9 3.5 0.00 0.00 0.00 56 1011.0
20260505122516 64 229 0.9 3.5 0.00 0.00 0.00 56 1010.9
20260505122015 64 263 0.0 4.3 0.00 0.00 0.00 56 1011.1
20260505121514 64 262 0.9 5.2 0.00 0.00 0.00 56 1011.0
20260505121033 63 250 0.9 5.2 0.00 0.00 0.00 57 1011.0
20260505120531 63 201 0.9 3.5 0.00 0.00 0.00 57 1011.1
20260505120024 63 222 0.0 3.5 0.00 0.00 0.00 58 1011.0
20260505115524 62 236 0.9 2.6 0.00 0.00 0.00 59 1011.0
20260505115043 62 285 0.9 4.3 0.00 0.00 0.00 59 1011.0
20260505114542 62 233 0.0 4.3 0.00 0.00 0.00 60 1011.0